sat.trackr.live / text

‹ back to catalog

STARLINK-2378

NORAD 47916 · 2021-021BJ

PAYLOAD ACTIVE UNKNOWN

§ Identity

Operator
Country
US
Launch date
2021-03-14
Launch site
AFETR
Launch vehicle
Mass (kg)
RCS (m²)

Purposes: comms

External: N2YO · Heavens-Above · Gunter

§ Orbital elements

Epoch: 2026-05-25T00:35:46.812768Z

Period
94.01 min
Inclination
53.1589°
Eccentricity
0.0001104
Mean motion
15.31705579 rev/d
Perigee alt
470.0 km
Apogee alt
471.5 km
Semi-major
6,848.9 km
B*
-3.9858e-5
RAAN
260.3852°
Arg perigee
87.1909°
Mean anomaly
272.9219°
Rev number
28,810

§ Raw data

STARLINK-23781 47916U 21021BJ  26145.02484737 -.00001602  00000+0 -39858-4 0  99932 47916  53.1589 260.3852 0001104  87.1909 272.9219 15.31705579288100

JSON: /api/v1/satellites/47916 · /tle

For live sub-satellite position, see the globe view (requires WebGL).

§ Visibility from observer

Set your observer location to see the next 7 days of passes ≥ 10°. The values pass through the URL so the page stays shareable.

No JS? Fill the form by hand. The geolocation button needs JavaScript.